Regional Weather Roundup
Issued by NWS Little Rock, AR

Home | Current Version | Previous Version | Graphics & Text | Print | Product List | Glossary On
Versions: 1 2 3 4 5 6 7 8 9 10 11 12 13 14 15 16 17 18 19 20 21 22 23 24 25 26 27 28 29 30 31 32 33 34 35 36 37 38 39 40 41 42 43 44 45 46 47 48
000
ASUS44 KLZK 091105
RWRLZK

WEATHER ROUNDUP FOR ARKANSAS
NATIONAL WEATHER SERVICE LITTLE ROCK AR
500 AM CST TUE FEB 09 2016

NOTE: "FAIR" INDICATES FEW OR NO CLOUDS BELOW 12,000 FEET WITH NO
SIGNIFICANT WEATHER AND/OR OBSTRUCTIONS TO VISIBILITY.

ARZ001-003-010-029-091200-
NORTHWEST ARKANSAS

CITY           SKY/WX    TMP DP  RH WIND       PRES   REMARKS
FAYETTEVILLE   CLEAR     29  18  63 W10       30.05F WCI  20
FORT SMITH     CLEAR     30  16  56 W10       30.11F WCI  21
HARRISON       CLEAR     28  16  60 NW12G17   29.98S WCI  18
BENTONVILLE    CLEAR     30  16  55 NW12G20   30.05S WCI  21
ROGERS         CLEAR     29  19  66 NW16      30.03S WCI  17
SILOAM SPGS    CLEAR     28  12  50 NW13      30.07S WCI  18
HIGHFILL       CLEAR     30  19  63 NW15      30.04S WCI  19
$$

ARZ004-005-016-091200-
NORTH CENTRAL ARKANSAS

CITY           SKY/WX    TMP DP  RH WIND       PRES   REMARKS
BATESVILLE     PTCLDY    30  12  47 W8G16     29.98S WCI  23
FLIPPIN        CLEAR    N/A N/A N/A NW16G30   29.96R
MTN HOME       CLEAR     29  12  49 NW9G28    29.96R WCI  20
$$

ARZ040-041-091200-
WEST CENTRAL ARKANSAS

CITY           SKY/WX    TMP DP  RH WIND       PRES   REMARKS
MENA           CLEAR     37  19  48 NW13      30.09F
MOUNT IDA      CLEAR     36  15  42 NW9G18    30.06S
$$

ARZ009-017-025-026-028-091200-
NORTHEAST ARKANSAS

CITY           SKY/WX    TMP DP  RH WIND       PRES   REMARKS
CORNING        FAIR      30  16  55 NW20G28   29.94S WCI  18
JONESBORO      MOCLDY    30  16  56 NW14      29.95S WCI  19
NEWPORT        PTCLDY    31  15  51 NW13      29.99S WCI  21
WALNUT RIDGE   PTCLDY    28  12  50 NW20      29.97R WCI  15
BLYTHEVILLE    CLOUDY    31  20  63 N6        29.95S WCI  25
$$

ARZ022-023-033-042-044-091200-
CENTRAL ARKANSAS

CITY           SKY/WX    TMP DP  RH WIND       PRES   REMARKS
LITTLE ROCK    CLEAR     37  16  42 W15G23    30.04F
N LITTLE ROCK    N/A     34  18  53 NW7G18    30.04F WCI  27
JACKSONVILLE   CLEAR     34  15  46 W10       30.01F WCI  26
SEARCY         CLEAR     32  16  51 W9        30.02F WCI  24
HOT SPRINGS    PTCLDY    36  16  44 VRB7      30.07S
RUSSELLVILLE   CLEAR     35  16  45 NW12      30.04F WCI  27
CLINTON        FAIR      34  16  47 NW15G28   30.01S WCI  24
$$

ARZ036-091200-
EAST ARKANSAS

CITY           SKY/WX    TMP DP  RH WIND       PRES   REMARKS
WEST MEMPHIS   CLOUDY    33  21  61 NW9       29.96F WCI  25
$$

ARZ050-053-066-070-073-091200-
SOUTHWEST ARKANSAS

CITY           SKY/WX    TMP DP  RH WIND       PRES   REMARKS
ARKADELPHIA    FAIR      36  17  46 W8        30.11S
CAMDEN         CLEAR     32  14  47 CALM      30.12R
TEXARKANA      CLEAR     37  17  44 W9        30.16S
EL DORADO      CLEAR     34  15  46 SW5       30.13S WCI  30
DE QUEEN       CLEAR     33  18  53 SW8       30.14S WCI  26
$$

ARZ056-057-069-091200-
SOUTHEAST ARKANSAS

CITY           SKY/WX    TMP DP  RH WIND       PRES   REMARKS
PINE BLUFF     PTCLDY    32  14  47 W7        30.06S WCI  26
STUTTGART      CLEAR     30  18  59 W7        30.03F WCI  23
MONTICELLO     CLEAR     33  14  45 W8        30.07R WCI  26

$$





USA.gov is the U.S. government's official web portal to all federal, state and local government web resources and services.